RH
68 61 64 80 79 76 90 96 97 96 93 94 95 95 91 92 90 86 89 92 90 93 91 87 83 84 82 80 84 73 67 67 77 72 69 61 60 61 54 69 60 67 66
70 69 77 93 95 98 97 98 98 92 91 92 92 89 85 85 88 88 90 87 89 92 91 91 84 76 85 84 83 82 72 69 74 76 76 72 67 66 65 67 54 45 56
69 65 97 96 92 97 98 97 94 94 92 84 82 83 81 88 88 89 86 89 91 90 89 90 84 80 84 94 88 82 72 59 71 85 81 81 79 73 67 63 61 63 46
87 94 97 97 96 97 96 96 96 93 94 95 86 84 87 89 85 84 87 91 92 91 90 84 78 82 89 87 81 85 78 81 81 77 75 78 85 74 76 73 76 74 61
91 95 97 97 96 97 94 90 86 87 88 87 89 90 89 87 85 88 91 93 88 89 85 79 79 86 89 88 79 81 82 80 79 78 89 89 86 86 82 69 78 65 66
87 90 91 90 92 92 90 89 87 85 83 85 88 91 93 83 95 92 89 87 80 81 89 90 88 86 86 90 90 90 90 91 89 89 85 85 78 84 82 82 82 84 71
76 75 77 79 80 83 86 85 83 84 89 92 93 92 93 90 92 92 90 90 93 92 92 93 86 76 89 90 85 86 85 82 85 84 83 77 78 75 80 85 92 81 73
72 72 73 72 73 73 75 79 85 88 90 92 92 94 94 92 92 90 92 93 94 93 92 93 95 91 94 83 82 84 80 78 77 76 86 85 84 81 83 79 80 81 85
72 71 68 70 69 71 76 80 84 85 87 87 84 88 91 93 94 95 94 95 92 86 76 79 79 81 81 79 81 82 72 61 49 57 63 71 76 75 81 85 95 92 96
68 67 65 66 70 80 87 90 90 89 85 83 88 88 94 95 94 90 88 96 90 91 80 77 79 79 78 74 76 80 84 78 76 77 77 74 74 75 77 82 82 96 97
64 68 72 75 82 84 88 90 92 94 92 93 92 95 89 82 80 75 74 82 90 90 89 85 85 74 68 65 69 84 87 82 82 86 86 85 83 79 77 85 76 76 98
72 77 79 78 74 78 87 88 86 92 94 91 94 96 90 82 76 72 69 69 70 86 83 89 88 68 70 74 78 69 66 78 80 81 82 87 93 87 82 76 84 74 78
75 77 77 74 75 77 87 81 78 84 85 87 87 96 95 93 89 74 69 67 71 88 84 74 71 75 77 82 67 63 75 79 82 86 85 82 82 77 75 92 91 92 80
72 70 66 61 56 52 60 64 72 83 87 84 83 89 94 93 92 88 81 88 81 80 82 84 85 87 90 86 76 70 74 78 80 85 83 83 79 80 83 81 91 98 97
61 56 61 61 60 68 75 71 68 77 82 85 95 88 94 97 82 73 72 78 91 82 93 97 95 92 80 77 75 74 77 76 82 82 86 84 82 82 83 83 80 97 96
59 65 77 76 69 60 69 73 69 68 66 67 73 81 83 72 64 66 64 66 64 68 90 98 98 97 93 82 84 84 82 83 82 83 88 84 88 88 90 86 84 96 98
70 63 74 69 70 79 77 77 85 78 69 67 65 63 68 64 63 62 62 62 63 70 95 96 97 97 95 84 84 84 87 84 82 86 87 88 89 90 87 91 92 99 99
72 77 74 79 80 79 77 81 86 87 92 88 69 64 65 63 61 59 62 63 88 81 86 95 97 97 90 84 85 87 87 87 87 87 87 89 91 92 92 90 91 95 97
73 78 81 83 82 79 82 85 82 83 83 84 86 81 75 64 60 59 69 95 97 96 89 86 96 97 93 92 96 97 94 91 91 89 89 88 91 90 89 87 91 91 98
88 92 92 92 91 90 88 84 78 80 84 85 86 88 80 84 94 95 96 97 98 95 96 94 95 94 98 96 98 96 91 91 89 88 90 90 90 88 92 91 90 96 97
94 95 96 93 87 87 89 86 82 87 87 86 91 92 81 84 91 96 94 98 98 97 99 99 98 99 99 96 87 92 93 91 89 89 90 92 87 93 90 90 91 92 97
94 91 88 88 86 93 85 78 87 87 87 88 90 89 87 96 96 95 95 98 98 98 98 98 99 99 96 91 93 95 92 91 90 90 93 88 88 91 93 93 93 92 96
95 96 89 86 86 85 92 91 92 94 92 93 92 94 96 98 98 96 97 99 99 98 98 99 99 95 94 97 97 94 94 93 92 94 93 91 90 90 93 94 93 93 94
92 93 85 88 92 89 96 96 95 94 95 97 98 98 98 98 98 99 99 99 99 100 100 98 97 97 95 91 93 89 91 93 93 92 94 93 92 89 92 93 93 94 92
95 94 93 94 96 97 98 97 97 97 97 98 99 98 97 98 100 99 100 99 100 100 97 97 100 93 91 91 90 93 94 91 90 91 93 93 93 93 93 93 94 93 94
91 90 94 96 97 97 98 99 99 98 98 99 99 100 100 100 99 100 99 100 98 98 97 99 96 91 92 90 87 92 90 89 91 90 93 93 93 92 93 94 94 94 95
Wind_Speed
8 15 15 14 18 15 10 7 7 5 10 10 8 7 8 8 8 8 7 8 7 6 4 5 4 2 2 4 3 3 4 3 4 4 4 5 4 5 5 7 9 9 8
18 14 11 3 11 5 3 12 14 12 9 10 9 9 10 9 10 10 10 8 7 6 6 5 4 3 4 4 5 6 5 5 4 8 5 4 7 6 6 6 8 9 9
15 17 8 11 15 10 9 9 9 8 8 9 10 11 11 10 10 9 9 8 7 6 7 5 2 1 5 5 5 5 5 6 4 4 6 4 5 4 7 6 6 7 7
13 10 12 10 12 12 11 10 7 7 6 4 7 9 10 10 9 8 7 6 7 7 6 4 2 1 6 7 6 6 6 5 4 5 10 11 6 7 5 6 8 4 8
12 12 12 12 12 11 10 9 9 8 7 7 9 8 8 8 6 7 7 8 8 6 5 3 2 4 8 9 7 9 9 8 7 9 11 11 11 7 8 10 8 11 8
13 12 12 11 11 9 10 10 8 9 8 7 7 7 7 5 11 11 9 8 7 5 4 1 3 6 9 12 15 16 12 9 10 7 10 10 13 7 7 8 9 5 9
11 11 12 12 12 11 10 10 9 9 7 7 6 6 6 5 13 12 11 5 5 4 2 2 5 5 7 7 10 11 10 12 9 8 11 11 12 11 9 11 7 10 10
10 11 11 12 12 10 11 10 8 6 7 6 7 7 7 6 13 11 10 6 4 1 3 3 4 6 3 8 8 8 9 9 9 8 9 11 10 12 10 12 16 13 5
10 10 10 11 12 11 11 9 7 7 6 5 6 7 7 6 8 9 7 4 2 5 5 4 4 4 8 15 9 11 12 12 12 18 20 21 23 26 22 11 10 8 7
9 10 10 11 11 10 9 8 4 5 6 7 7 8 8 8 11 10 9 4 5 3 4 5 9 8 11 15 10 9 12 13 13 15 13 14 15 16 24 14 10 12 8
10 11 12 12 12 10 8 6 7 7 7 6 6 7 10 11 12 18 15 6 3 2 2 3 3 10 15 17 16 7 10 14 15 12 12 11 12 11 10 9 11 11 10
13 12 11 10 8 8 8 5 7 7 7 6 9 8 7 9 13 15 14 11 7 3 2 2 3 16 16 15 11 14 17 10 8 10 11 11 9 11 12 11 10 12 10
11 11 9 9 8 6 5 6 6 7 6 5 7 8 7 5 6 12 12 10 9 3 2 9 15 15 15 8 10 15 9 6 7 8 10 10 11 13 15 14 10 12 12
10 7 6 8 8 8 7 6 7 5 5 5 6 6 6 4 3 3 4 2 3 3 4 5 7 9 6 2 5 7 6 6 8 8 10 10 10 11 12 10 13 6 7
9 8 7 8 10 9 7 5 6 4 4 5 3 4 4 4 4 5 5 3 1 3 3 1 3 2 5 6 6 7 6 7 8 9 9 11 12 12 13 10 12 9 8
10 7 5 6 6 7 8 7 12 11 13 13 11 8 5 8 6 7 8 8 10 10 1 1 2 3 4 6 6 7 6 8 8 10 9 10 12 13 13 13 15 10 10
10 8 7 8 6 6 6 6 6 5 8 8 9 9 9 6 4 7 7 7 9 8 2 1 1 2 3 6 6 7 8 8 10 9 10 10 12 11 15 13 15 4 1
11 13 7 6 6 6 6 5 5 4 2 2 4 5 7 4 5 7 7 4 2 3 2 1 1 2 4 6 6 7 8 8 8 9 10 10 11 11 13 13 12 14 6
10 8 7 6 6 7 5 4 3 3 3 2 2 4 5 4 8 7 8 1 0 1 3 3 2 2 4 4 4 4 6 7 8 9 10 10 10 11 13 12 12 21 6
11 12 8 6 5 5 5 4 4 4 3 3 2 3 2 1 3 3 3 2 3 2 2 2 3 3 3 4 3 4 7 7 8 9 9 10 10 12 12 13 13 14 7
5 5 7 6 5 4 4 4 3 3 2 1 2 1 2 0 2 2 1 1 1 1 1 1 2 2 3 4 6 6 7 7 8 9 10 8 12 12 12 12 13 13 8
6 5 5 4 4 4 3 2 2 2 3 3 2 1 3 0 1 1 1 0 1 1 1 1 2 2 3 6 6 6 8 8 9 9 9 11 11 12 12 12 12 11 11
5 4 4 3 3 3 3 3 3 3 1 2 2 2 2 2 2 2 2 2 1 2 3 2 2 4 4 4 3 6 8 9 10 9 11 12 12 12 11 12 12 13 12
4 4 4 4 3 2 2 1 2 3 3 3 3 3 3 2 2 3 2 2 2 3 2 2 3 5 6 7 6 8 9 9 9 11 14 12 12 14 12 12 12 13 15
4 3 3 3 3 2 3 3 3 3 3 3 2 2 2 3 3 3 3 3 2 2 4 4 3 6 8 10 13 13 12 14 13 16 10 13 14 16 13 11 12 13 15
5 5 4 3 2 2 2 3 3 2 2 1 2 2 2 3 3 3 3 3 3 3 5 3 5 9 11 10 12 14 15 16 16 18 14 11 11 11 11 13 16 12 14
Wind_Direction
232 223 217 202 195 186 163 147 112 148 168 152 165 163 152 164 162 166 165 159 153 152 177 176 169 58 339 329 299 266 253 208 239 277 235 242 241 228 223 210 211 209 211
208 225 210 121 91 4 95 127 161 169 170 156 167 166 169 167 165 165 166 166 167 170 163 146 141 34 306 285 268 268 254 244 214 257 239 248 232 223 220 208 218 218 210
214 226 151 164 178 175 143 152 152 151 157 170 160 164 163 161 158 165 171 156 162 152 146 137 130 329 330 283 266 268 267 265 240 240 272 243 249 238 252 232 222 226 226
186 133 136 133 122 122 123 122 144 139 138 157 150 151 154 155 158 165 156 146 136 144 157 161 188 14 273 283 289 276 276 258 249 269 274 273 258 251 227 244 259 221 243
120 113 117 116 115 121 130 129 124 119 118 115 116 125 137 143 152 158 150 153 159 155 158 182 55 262 287 283 290 290 282 272 265 265 261 263 262 255 237 250 244 256 237
112 116 118 120 118 118 119 117 117 117 118 115 118 134 140 149 150 150 146 148 148 162 172 59 297 279 279 287 283 278 256 260 269 264 271 267 271 256 267 246 243 243 257
100 101 104 109 111 109 111 118 118 113 116 122 128 128 130 124 134 123 113 115 122 122 116 269 264 285 310 344 352 352 344 333 296 289 283 280 278 276 270 263 248 242 244
102 105 108 111 110 103 100 100 101 108 119 120 118 120 114 122 124 128 120 117 116 182 248 301 354 358 28 352 342 332 325 317 313 304 293 292 290 295 279 269 267 256 225
118 120 120 115 114 113 114 117 115 117 118 123 133 132 131 152 142 124 116 124 74 54 43 29 18 341 354 7 353 328 316 308 303 303 301 300 297 293 285 289 265 232 235
118 111 113 115 115 115 120 123 116 117 115 109 97 107 98 89 83 94 86 85 76 28 10 11 2 354 347 341 327 316 309 305 309 306 298 291 285 284 286 270 261 243 234
118 111 108 111 116 116 110 106 107 106 103 101 101 90 96 95 81 84 80 79 84 34 9 339 318 335 328 322 322 304 292 304 310 304 301 300 297 292 288 261 255 248 235
105 108 110 112 118 115 123 124 121 122 115 118 106 93 90 97 94 85 80 75 63 58 342 304 309 324 324 324 325 329 342 333 324 325 320 314 302 307 301 294 246 248 236
110 114 119 122 127 136 130 117 103 111 115 120 115 125 123 93 72 69 58 51 41 33 339 332 323 321 318 322 341 348 342 334 328 323 317 320 324 309 307 302 277 240 227
122 120 117 112 99 86 84 81 92 89 91 93 102 112 118 101 92 63 49 32 16 358 335 315 299 294 292 323 346 346 338 336 329 320 321 315 315 310 306 305 296 240 225
110 112 101 96 95 84 67 76 89 54 99 112 96 107 109 99 71 47 17 357 301 307 287 310 297 321 359 351 347 342 339 334 331 327 318 324 319 312 305 301 301 267 210
103 88 83 97 100 99 97 80 71 90 92 96 101 106 90 107 76 18 357 349 342 335 0 333 320 350 356 345 339 336 334 333 329 325 323 325 314 313 312 308 298 246 248
96 92 81 81 91 110 113 120 119 89 96 107 113 118 127 116 58 356 345 336 350 33 38 355 357 349 334 345 337 334 329 331 327 323 328 315 314 310 319 311 311 239 223
77 71 72 66 75 80 85 92 125 140 162 168 183 156 129 96 23 353 326 324 5 1 359 14 339 323 342 338 334 329 325 326 328 328 323 317 314 317 319 316 315 297 216
75 76 71 70 61 63 59 67 74 75 68 90 123 104 97 73 10 9 2 94 165 5 25 8 339 343 336 329 311 300 313 322 322 323 315 315 313 320 314 314 307 309 189
60 62 69 69 66 59 55 49 53 56 54 54 63 117 136 60 15 341 317 20 44 34 351 342 1 336 301 305 303 312 314 319 324 314 315 307 316 316 312 310 312 314 249
80 66 62 66 71 70 56 41 40 48 48 41 72 115 148 149 268 271 344 70 70 315 326 346 306 292 292 323 320 311 307 322 310 309 305 306 315 308 307 303 309 307 250
70 71 69 58 53 62 44 4 31 38 30 49 34 144 310 216 313 11 2 0 296 303 329 309 309 316 323 305 306 309 321 309 306 304 306 312 306 304 304 304 305 296 283
66 64 62 87 79 40 12 40 33 16 20 334 357 4 358 14 3 349 324 309 7 358 330 29 347 307 290 283 301 299 302 301 299 301 310 304 303 302 301 302 304 303 304
58 48 41 49 62 21 17 25 332 350 15 28 18 13 20 356 342 345 349 356 348 338 16 329 304 290 314 316 302 301 295 296 305 308 303 302 301 301 299 301 301 297 299
57 55 54 39 20 13 7 17 27 26 26 28 27 15 340 348 4 352 337 322 360 16 328 316 300 313 306 307 300 298 301 319 311 309 309 303 296 301 300 300 302 301 300
52 43 28 14 15 13 21 31 18 8 9 348 331 326 338 353 352 330 313 17 360 329 306 292 301 307 304 306 309 318 322 319 317 314 312 300 306 306 305 305 308 306 295